Погода в Коммунаре

Россия / Костромская область     58°09′58″N   43°32′59″E
темп.,
°C
ветер,
м/с
пор.,
м/с
влажн.,
%
обл.,
%
осадки,
мм/ч
давл.,
гПа
погр.,
м
13 мая, чт
чт1300:00+14юв259051 0.0 102398
03:00+13юв229230 0.0 102421
06:00+15вюв2379100 0.0 102372
09:00+19юв376450 0.0 1022514
12:00+23ююв5847100 0.0 10211838
15:00+25юв484099 0.0 10192443
18:00+22вюв4956100 0.0 1017791
21:00+16вюв278987 1.4 1017196
14 мая, пт
пт1400:00+15ю289697 2.6 1016408
03:00+13юз249824 2.6 101882
06:00+14зюз13892 0.0 1018136
09:00+19ююз226430 0.0 1019644
12:00+22ююз3545100 0.0 10191695
15:00+21ююз354996 0.0 10181715
18:00+20ююз25635 0.1 1018511
21:00+15ююв118230 0.1 101711
15 мая, сб
сб1500:00+14вюв22895 0.0 101741
03:00+13вюв2790100 0.4 1016142
06:00+15юв31091100 0.6 1015321
09:00+20ююв367898 0.7 1014506
12:00+26ююв475482 0.0 10121278
15:00+27ю610482 0.0 10101854
18:00+21ююз41076100 1.3 1010836
21:00+16ююз269582 5.3 1011193
16 мая, вс
вс1600:00+15ююз412965 1.3 1011503
03:00+14ююз4129738 1.3 1011573
06:00+15ююз4119338 0.0 1012654
09:00+18юз5973100 0.0 1013979
12:00+21юз6855100 0.0 10131682
15:00+23юз58487 0.1 10132100
18:00+19зюз486848 0.6 1013539
21:00+14зюз238935 0.8 101457
17 мая, пн
пн1700:00+13зюз22925 0.0 101535
03:00+11зюз11940 0.0 101610
06:00+14юз11850 0.0 1017101
09:00+19юз2263100 0.0 1018817
12:00+22ююз2251100 0.0 10171391
15:00+24ююз2246100 0.0 10171799
18:00+21ю2364100 0.0 101799
21:00+16ююв117749 0.0 101711